| time (UTC) | temp C | wind direction | speed KPH | gust KPH | rain 1hr cm | rain 24hr cm | rain mn cm | humidity % | barometer mb |
| 20260506062226 | 19 | 0 | 0.0 | 4.8 | 0.00 | 0.00 | 0.00 | 62 | 1016.0 |
| 20260506061726 | 19 | 0 | 0.0 | 1.6 | 0.00 | 0.00 | 0.00 | 63 | 1016.0 |
| 20260506050739 | 16 | 0 | 0.0 | 0.0 | 0.00 | 0.00 | 0.00 | 69 | 1016.0 |
| 20260506050238 | 16 | 0 | 0.0 | 0.0 | 0.00 | 0.00 | 0.00 | 70 | 1016.0 |
| 20260506044738 | 15 | 0 | 0.0 | 0.0 | 0.00 | 0.00 | 0.00 | 72 | 1015.9 |
| 20260506043738 | 14 | 0 | 0.0 | 0.0 | 0.00 | 0.00 | 0.00 | 72 | 1015.8 |
| 20260506043238 | 13 | 0 | 0.0 | 0.0 | 0.00 | 0.00 | 0.00 | 72 | 1015.8 |
| 20260506042738 | 13 | 0 | 0.0 | 0.0 | 0.00 | 0.00 | 0.00 | 73 | 1015.7 |
| 20260505234238 | 16 | 0 | 0.0 | 0.0 | 0.00 | 0.00 | 0.00 | 61 | 1014.6 |
| 20260505231238 | 16 | 0 | 0.0 | 0.0 | 0.00 | 0.00 | 0.00 | 61 | 1014.5 |
| 20260505225738 | 16 | 0 | 0.0 | 0.0 | 0.00 | 0.00 | 0.00 | 62 | 1014.5 |
| 20260505225238 | 16 | 0 | 0.0 | 0.0 | 0.00 | 0.00 | 0.00 | 61 | 1014.6 |
| 20260505224738 | 16 | 0 | 0.0 | 0.0 | 0.00 | 0.00 | 0.00 | 62 | 1014.7 |
| 20260505224238 | 16 | 0 | 0.0 | 0.0 | 0.00 | 0.00 | 0.00 | 62 | 1014.7 |
| 20260505223238 | 16 | 0 | 0.0 | 0.0 | 0.00 | 0.00 | 0.00 | 61 | 1014.7 |
| 20260505222738 | 16 | 0 | 0.0 | 0.0 | 0.00 | 0.00 | 0.00 | 61 | 1014.7 |
| 20260505222238 | 17 | 0 | 0.0 | 0.0 | 0.00 | 0.00 | 0.00 | 62 | 1014.7 |
| 20260505220449 | 17 | 0 | 0.0 | 0.0 | 0.00 | 0.00 | 0.00 | 62 | 1014.6 |
| 20260505211146 | 18 | 328 | 3.2 | 14.5 | 0.00 | 0.00 | 0.00 | 63 | 1014.4 |
| 20260505210646 | 18 | 0 | 0.0 | 9.7 | 0.00 | 0.00 | 0.00 | 61 | 1014.3 |
| 20260505210146 | 18 | 0 | 0.0 | 9.7 | 0.00 | 0.00 | 0.00 | 60 | 1014.3 |
| 20260505204141 | 18 | 0 | 0.0 | 0.0 | 0.00 | 0.00 | 0.00 | 50 | 1014.0 |
| 20260505200838 | 19 | 0 | 0.0 | 0.0 | 0.00 | 0.00 | 0.00 | 45 | 1013.7 |
| 20260505193838 | 20 | 0 | 0.0 | 6.4 | 0.00 | 0.00 | 0.00 | 46 | 1013.6 |
| 20260505193338 | 20 | 0 | 0.0 | 6.4 | 0.00 | 0.00 | 0.00 | 46 | 1013.5 |
| 20260505165556 | 23 | 169 | 1.6 | 12.9 | 0.00 | 0.00 | 0.00 | 41 | 1012.3 |